[[{"header":{"parameterUnit":"m.s-1","parameterCategory":1,"la1":30.2991,"la2":30.254,"lo1":-89.0895,"lo2":-89.0444,"dy":0.0017,"dx":0.0017,"nx":28,"ny":28,"refTime":"2024-03-03T09:00:00:Z","depth":0,"parameterNumber":2,"parameterNumberName":"U-component_of_WINDS"},"data":[0,0,0,0,0,0,0,0,0,0,0,0,0,0,0,0,0,0,0,0,0,0,0,0,0,0,0,0,0,0,0,0,0,0,0,0,0,0,0,0,0,0,0,0,0,0,0,0,0,0,0,0,0,0,0,0,0,0,-3.3682,-3.3682,0,-3.3642,-3.3641,-3.3641,-3.3558,-3.3556,-3.3554,-3.3553,-3.3511,-3.3512,-3.3512,0,0,0,0,0,0,0,0,0,0,0,0,0,-3.369,-3.3691,-3.3682,-3.3682,-3.3681,-3.3642,-3.3641,-3.3641,-3.3558,-3.3556,-3.3554,-3.3552,-3.3511,-3.3512,-3.3512,0,0,0,0,0,0,0,0,0,0,0,0,0,-3.3672,-3.3691,-3.3682,-3.3635,-3.3631,-3.3642,-3.3641,-3.3641,-3.3558,-3.3556,-3.3553,-3.3551,-3.3511,-3.3511,-3.3512,-3.3566,0,0,-3.3514,-3.3514,0,0,0,0,0,0,0,0,-3.3673,-3.3672,-3.3643,-3.3639,-3.3633,-3.3602,-3.3629,-3.3616,-3.3559,-3.3586,-3.3553,-3.355,-3.3543,-3.3541,-3.3539,-3.3564,-3.3562,-3.3514,-3.3515,-3.3515,-3.3515,0,0,0,0,0,0,0,-3.3675,-3.3673,-3.3666,-3.3642,-3.3637,-3.3617,-3.3612,-3.3626,-3.3579,-3.3583,-3.3577,-3.3574,-3.354,-3.3539,-3.3538,-3.3562,-3.3514,-3.3515,-3.3515,-3.3515,-3.3632,-3.3634,0,0,0,0,0,0,-3.3683,-3.3675,-3.3667,-3.3665,-3.3648,-3.3619,-3.3613,-3.3615,-3.3579,-3.3571,-3.3576,-3.357,-3.3539,-3.3537,-3.3536,-3.3597,-3.3515,-3.3515,-3.3516,-3.3629,-3.3632,-3.3635,0,0,0,0,0,0,-3.3683,-3.3683,-3.3669,-3.3668,-3.3665,-3.3621,-3.3624,-3.3615,-3.3613,-3.3573,-3.3564,-3.3582,-3.3537,-3.3535,-3.356,-3.3595,-3.3516,-3.3516,-3.3626,-3.363,-3.3634,-3.3721,0,0,0,0,0,0,-3.3684,-3.3683,-3.3703,-3.3669,-3.3665,-3.3693,-3.3626,-3.3616,-3.3615,-3.3607,-3.3577,-3.357,-3.3535,-3.3559,-3.356,-3.3594,-3.3517,-3.3622,-3.3628,-3.3632,-3.3714,-3.3727,-3.3738,0,0,0,0,0,-3.3684,-3.3728,-3.3704,-3.3703,-3.3688,-3.3695,-3.3693,-3.3652,-3.3618,-3.3637,-3.3612,-3.357,-3.3592,-3.3562,-3.3563,-3.3598,-3.362,-3.3626,-3.3632,-3.3709,-3.3725,-3.3738,0,0,0,0,0,0,-3.3765,-3.3723,-3.3695,-3.373,-3.3717,-3.3681,-3.3704,-3.3669,-3.3666,-3.3658,-3.3608,-3.3602,-3.3634,-3.3618,-3.3587,-3.3649,-3.3599,-3.3606,-3.3658,-3.3672,-3.3684,-3.3686,-3.3517,0,0,0,0,0,-3.3787,-3.3796,-3.3759,-3.3793,-3.3788,-3.3748,-3.3749,-3.3719,-3.3704,-3.3697,-3.3674,-3.3661,-3.3665,-3.3668,-3.3669,-3.3713,-3.3706,-3.3737,-3.3749,-3.3759,-3.3765,-3.3789,-3.3803,-3.3655,-3.3655,-3.3655,0,0,-3.3832,-3.381,-3.3819,-3.3808,-3.3795,-3.3806,-3.3743,-3.3757,-3.3765,-3.3699,-3.3721,-3.3705,-3.3687,-3.3722,-3.3736,-3.371,-3.3805,-3.3767,-3.3775,-3.3775,-3.3797,-3.3811,-3.3823,-3.3659,-3.3658,-3.3658,0,0,-3.392,-3.3904,-3.3931,-3.392,-3.3901,-3.3875,-3.3882,-3.3852,-3.3838,-3.386,-3.3812,-3.3822,-3.3829,-3.3819,-3.3815,-3.3904,-3.3866,-3.3906,-3.3967,-3.3991,-3.4002,-3.4012,-3.4045,-3.4057,-3.3912,-3.3912,-3.3912,0,-3.3978,-3.3992,-3.3949,-3.3967,-3.3965,-3.3908,-3.3936,-3.3927,-3.391,-3.391,-3.3881,-3.3891,-3.3875,-3.3908,-3.393,-3.3929,-3.3936,-3.3907,-3.4004,-3.4014,-3.4023,-3.4053,-3.4065,-3.3917,-3.3917,-3.3916,-3.3916,0,-3.4065,-3.4076,-3.41,-3.4086,-3.4087,-3.411,-3.4072,-3.4078,-3.405,-3.4027,-3.4051,-3.4031,-3.4028,-3.4034,-3.4005,-3.4064,-3.4049,-3.4013,-3.3961,-3.4042,-3.407,-3.4081,-3.3924,-3.3922,-3.3921,-3.392,0,0,-3.4198,-3.4163,-3.4172,-3.4166,-3.4144,-3.4151,-3.4174,-3.4171,-3.4178,-3.4169,-3.4187,-3.4196,-3.4164,-3.416,-3.4131,-3.4152,-3.4225,-3.4114,-3.4113,-3.4135,-3.429,-3.4316,-3.4329,-3.4201,-3.4203,-3.4205,-3.4291,0,-3.4279,-3.4313,-3.4278,-3.4319,-3.433,-3.4279,-3.4298,-3.4287,-3.4268,-3.4275,-3.4253,-3.4261,-3.4218,-3.4215,-3.4235,-3.4212,-3.4255,-3.4206,-3.4217,-3.4218,-3.4221,-3.4344,-3.437,-3.4452,-3.4301,-3.4303,-3.4305,0,-3.4377,-3.4374,-3.4418,-3.4395,-3.4398,-3.4416,-3.4412,-3.442,-3.4408,-3.4392,-3.439,-3.4355,-3.4376,-3.4329,-3.4358,-3.4325,-3.4328,-3.4318,-3.4321,-3.4319,-3.4265,-3.4344,-3.4477,-3.4489,-3.4321,-3.432,-3.4318,0,-3.447,-3.4477,-3.4504,-3.4501,-3.4475,-3.4489,-3.4479,-3.4464,-3.4467,-3.4465,-3.4466,-3.4466,-3.4466,-3.4468,-3.4436,-3.4403,-3.4469,-3.4418,-3.4457,-3.4458,-3.4471,-3.4471,-3.4606,-3.4476,-3.4476,-3.4476,-3.4476,0,-3.4563,-3.4591,-3.4546,-3.4562,-3.4594,-3.4554,-3.4587,-3.4571,-3.456,-3.4573,-3.453,-3.4544,-3.4501,-3.4511,-3.4486,-3.4514,-3.4515,-3.4504,-3.4496,-3.4507,-3.4508,-3.4506,-3.4499,-3.4479,-3.4478,-3.4478,-3.4477,0,-3.467,-3.4641,-3.4667,-3.4642,-3.4637,-3.4661,-3.464,-3.4655,-3.4635,-3.4653,-3.4655,-3.4623,-3.4633,-3.4601,-3.4606,-3.4589,-3.4631,-3.4615,-3.4635,-3.463,-3.4671,-3.4668,-3.4809,-3.4826,-3.4687,-3.4688,-3.4689,0,-3.473,-3.4751,-3.473,-3.4736,-3.4729,-3.474,-3.4742,-3.4706,-3.471,-3.4701,-3.4717,-3.4724,-3.4727,-3.4746,-3.4723,-3.4727,-3.471,-3.476,-3.471,-3.4721,-3.4711,-3.4709,-3.4712,-3.4769,-3.4771,-3.4772,-3.4774,0,-3.4841,-3.4827,-3.4832,-3.4834,-3.4839,-3.4838,-3.4834,-3.4842,-3.4804,-3.4812,-3.4822,-3.4824,-3.4831,-3.4838,-3.4838,-3.4829,-3.4795,-3.479,-3.4799,-3.4809,-3.482,-3.4814,-3.4662,-3.4786,-3.4785,-3.4784,-3.4783,-3.4783,-3.4926,-3.4943,-3.4931,-3.494,-3.4934,-3.4933,-3.4946,-3.4929,-3.4937,-3.4939,-3.4918,-3.4933,-3.4924,-3.492,-3.4915,-3.4927,-3.4904,-3.4918,-3.4921,-3.4924,-3.4931,-3.482,-3.4927,-3.4927,-3.4926,-3.4926,-3.4926,0,-3.5034,-3.5025,-3.5033,-3.5031,-3.5038,-3.5008,-3.5004,-3.5012,-3.5026,-3.502,-3.5025,-3.5039,-3.5047,-3.5027,-3.5032,-3.5046,-3.5031,-3.5049,-3.5046,-3.5045,-3.4951,-3.4943,-3.5061,-3.5061,-3.5061,-3.5061,-3.5061,-3.5061,-3.5091,-3.5118,-3.5104,-3.5129,-3.512,-3.5135,-3.5135,-3.5135,-3.513,-3.5147,-3.5154,-3.5142,-3.5131,-3.5136,-3.5143,-3.5137,-3.5141,-3.5164,-3.5153,-3.5065,-3.5051,-3.5039,-3.503,-3.5165,-3.5165,-3.5245,-3.5246,-3.5246]},{"header":{"parameterUnit":"m.s-1","parameterCategory":1,"la1":30.2991,"la2":30.254,"lo1":-89.0895,"lo2":-89.0444,"dy":0.0017,"dx":0.0017,"nx":28,"ny":28,"refTime":"2024-03-03T09:00:00:Z","depth":0,"parameterNumber":3,"parameterNumberName":"V-component_of_WINDS"},"data":[0,0,0,0,0,0,0,0,0,0,0,0,0,0,0,0,0,0,0,0,0,0,0,0,0,0,0,0,0,0,0,0,0,0,0,0,0,0,0,0,0,0,0,0,0,0,0,0,0,0,0,0,0,0,0,0,0,0,1.5159,1.5159,0,1.5152,1.5152,1.5152,1.5231,1.5233,1.5236,1.5238,1.5222,1.522,1.5218,0,0,0,0,0,0,0,0,0,0,0,0,0,1.5235,1.5233,1.5159,1.5159,1.5159,1.5152,1.5152,1.5152,1.5231,1.5234,1.5236,1.5239,1.5223,1.522,1.5217,0,0,0,0,0,0,0,0,0,0,0,0,0,1.5212,1.5233,1.5159,1.5198,1.5201,1.5152,1.5152,1.5152,1.523,1.5234,1.5237,1.524,1.5224,1.5221,1.5217,1.5128,0,0,1.5206,1.5204,0,0,0,0,0,0,0,0,1.5214,1.5209,1.5192,1.5195,1.5199,1.5196,1.5173,1.5144,1.5229,1.5219,1.5238,1.5242,1.521,1.5208,1.5199,1.5127,1.5127,1.5205,1.5203,1.5201,1.52,0,0,0,0,0,0,0,1.5215,1.521,1.5156,1.5192,1.5196,1.5214,1.5214,1.5168,1.5196,1.522,1.5226,1.5224,1.5213,1.5203,1.5199,1.5126,1.5205,1.5202,1.52,1.5198,1.4982,1.4979,0,0,0,0,0,0,1.5212,1.5211,1.5157,1.5156,1.5215,1.521,1.521,1.5194,1.5197,1.5201,1.5222,1.5228,1.5207,1.5204,1.5199,1.5096,1.5202,1.5198,1.5196,1.4986,1.4981,1.4977,0,0,0,0,0,0,1.5214,1.5207,1.5157,1.5185,1.518,1.5205,1.5186,1.5192,1.5182,1.5198,1.5203,1.5207,1.521,1.5204,1.5146,1.5096,1.5196,1.5193,1.499,1.4984,1.4979,1.4888,0,0,0,0,0,0,1.5216,1.5207,1.5175,1.5184,1.5178,1.5105,1.5183,1.5189,1.5176,1.5185,1.5185,1.5188,1.5212,1.5151,1.5142,1.5093,1.519,1.4994,1.4987,1.4981,1.4896,1.488,1.4867,0,0,0,0,0,1.5218,1.5147,1.5173,1.5166,1.5139,1.5102,1.5099,1.513,1.5172,1.5139,1.515,1.5188,1.5104,1.5144,1.5135,1.5084,1.4997,1.4989,1.4982,1.4902,1.4883,1.4868,0,0,0,0,0,0,1.5128,1.5149,1.5177,1.5108,1.5103,1.5116,1.5075,1.5109,1.509,1.5098,1.5135,1.5135,1.507,1.5071,1.5116,1.4999,1.5058,1.5047,1.5,1.4983,1.4969,1.4969,1.5187,0,0,0,0,0,1.5101,1.5072,1.5091,1.5027,1.5024,1.505,1.5035,1.506,1.5055,1.5052,1.5059,1.5051,1.5023,1.5003,1.4978,1.4897,1.4897,1.4857,1.4843,1.4831,1.4821,1.4779,1.4761,1.4951,1.4951,1.4952,0,0,1.5043,1.5051,1.5029,1.501,1.5009,1.4976,1.5047,1.5009,1.4984,1.5046,1.4992,1.4996,1.4989,1.492,1.4889,1.4919,1.477,1.4821,1.4812,1.4808,1.4769,1.4751,1.4735,1.4946,1.4947,1.4948,0,0,1.4921,1.4924,1.4873,1.4871,1.487,1.4888,1.4876,1.4884,1.489,1.4837,1.4883,1.4853,1.4803,1.4797,1.4787,1.4665,1.4699,1.4655,1.4581,1.4539,1.4524,1.4511,1.4467,1.445,1.4646,1.4646,1.4645,0,1.4848,1.4803,1.4841,1.48,1.479,1.4848,1.4795,1.479,1.4779,1.477,1.4804,1.4745,1.4744,1.4674,1.4645,1.4635,1.462,1.4655,1.4523,1.4511,1.4499,1.4457,1.444,1.464,1.4641,1.4641,1.4642,0,1.4713,1.4681,1.4639,1.4631,1.4616,1.4569,1.4598,1.4578,1.4604,1.4618,1.4563,1.4566,1.4542,1.4528,1.4551,1.446,1.4479,1.4518,1.4577,1.4475,1.4436,1.442,1.4633,1.4635,1.4636,1.4637,0,0,1.4532,1.4548,1.4532,1.453,1.4534,1.4508,1.4464,1.4444,1.4426,1.4417,1.4379,1.4337,1.4374,1.4363,1.4387,1.435,1.4253,1.4393,1.4394,1.4367,1.4152,1.4122,1.4103,1.4276,1.4274,1.4271,1.4152,0,1.4414,1.4341,1.4375,1.4298,1.4268,1.4323,1.4284,1.4281,1.4293,1.4268,1.4281,1.425,1.4301,1.4295,1.4261,1.4272,1.421,1.4281,1.424,1.4238,1.4239,1.4083,1.4051,1.3939,1.4138,1.4135,1.4133,0,1.4265,1.4253,1.4174,1.4185,1.4173,1.4138,1.4123,1.4099,1.4096,1.4108,1.4097,1.4129,1.4085,1.4145,1.4083,1.4131,1.4116,1.4119,1.4115,1.4112,1.4179,1.4074,1.3904,1.3887,1.411,1.4112,1.4113,0,1.4141,1.4105,1.4053,1.4049,1.406,1.4034,1.4037,1.4039,1.4025,1.4011,1.4002,1.3982,1.397,1.3953,1.3979,1.4021,1.3913,1.3976,1.392,1.3919,1.3894,1.3895,1.3718,1.3885,1.3886,1.3886,1.3886,0,1.4004,1.3953,1.3998,1.3965,1.391,1.3949,1.3892,1.39,1.3901,1.3871,1.3916,1.3886,1.3922,1.3895,1.3914,1.386,1.3855,1.3861,1.3867,1.3857,1.3856,1.3846,1.3854,1.3882,1.3883,1.3884,1.3884,0,1.3855,1.3883,1.383,1.3847,1.3849,1.3807,1.382,1.379,1.3807,1.3767,1.376,1.3784,1.3754,1.3779,1.3749,1.3762,1.369,1.3707,1.3692,1.3696,1.3639,1.3643,1.3449,1.3425,1.3609,1.3607,1.3605,0,1.3765,1.3728,1.3741,1.3725,1.3726,1.37,1.3687,1.3724,1.3708,1.3704,1.3673,1.3649,1.363,1.358,1.3593,1.3571,1.3587,1.352,1.3583,1.3575,1.3585,1.3587,1.3583,1.3507,1.3505,1.3503,1.3502,0,1.3603,1.362,1.3601,1.3587,1.3571,1.3561,1.3554,1.3538,1.3576,1.3556,1.3528,1.3514,1.3485,1.3459,1.3441,1.3442,1.3477,1.3482,1.3468,1.3456,1.3449,1.3452,1.3656,1.3486,1.3487,1.3488,1.3489,1.349,1.3481,1.3451,1.3456,1.3433,1.3433,1.3426,1.3399,1.3414,1.3392,1.3373,1.3396,1.3361,1.336,1.334,1.3337,1.3309,1.3336,1.3316,1.331,1.3304,1.3296,1.3454,1.3306,1.3306,1.3307,1.3307,1.3308,0,1.3321,1.3328,1.3307,1.3298,1.328,1.3318,1.3313,1.3295,1.3265,1.3262,1.3244,1.3212,1.3187,1.32,1.3178,1.3153,1.3168,1.3146,1.3147,1.3147,1.3273,1.3287,1.3134,1.3134,1.3134,1.3134,1.3134,1.3134,1.3236,1.3187,1.3204,1.3154,1.3161,1.313,1.3123,1.3117,1.3115,1.3078,1.3059,1.3068,1.3071,1.3051,1.3029,1.3033,1.3023,1.2994,1.3003,1.3121,1.3138,1.3154,1.3168,1.2992,1.2991,1.288,1.2879,1.2878]}]]